Content
SEND FEEDBACK

Daily
Averages
Monthly
Summary
United States of America

SAN DIMAS, CALIFORNIA


Home > North America > United States > California
Elevation: 690 feet     Latitude: 34 03N     Longitude: 117 49W

WEATHER
 
SELECT A DAY
Number of Records: 182,992;   Date Range: 1/1/95 - 9/18/14
 
SHARE

PRINT THIS DATA

[ ← Previous Day ]
WEATHER ALMANAC - JANUARY 31, 2013
[ Next Day → ]
[ °C ]   °F
Weather ElementAverageHighLow
Temperature56 °F75.9 °F (2:53 pm)37.9 °F (6:53 am)
Dewpoint39.4 °F44.1 °F (9:53 am)33.1 °F (1:53 pm)
Humidity59.6 %89 % (1:53 am)22 % (1:53 pm)
Barometer30.17 in30.24 in (1:53 am)30.10 in (2:53 pm)
Wind Speed1.8 mph6.9 mph (1:53 pm)
Weather ElementAverage
Visibility9 mi
Wind DirectionENE (75.7 °)

Weather ElementTotal
Precipitation---
Heating Degree Days8.1 (Base 65)
Growing Degree Days6.9 (Base 50)
Averaged from 23 records on January 31, 2013
WEATHER CONDITIONS BREAKOUT
WIND DIRECTION BREAKOUT
WEATHER BY HOUR - JANUARY 31, 2013
[ °C ]   °F
Local TimeTemperatureDewpointHumidityBarometerVisibilityWind DirectionWind SpeedGust SpeedPrecipitationEventsConditions
1:53 AM39.9 °F37.0 °F89 %30.24 in7.0 miCalmClear
2:53 AM44.1 °F39.0 °F82 %30.23 in7.0 miCalmClear
3:53 AM41.0 °F37.0 °F86 %30.21 in6.0 miCalmClear
4:53 AM39.9 °F37.0 °F89 %30.20 in6.0 miCalmClear
5:53 AM43.0 °F37.0 °F80 %30.19 in7.0 miCalmClear
6:53 AM37.9 °F35.1 °F89 %30.20 in10.0 miCalmPartly Cloudy
7:53 AM45.0 °F41.0 °F86 %30.21 in10.0 miCalmPartly Cloudy
8:53 AM53.1 °F42.1 °F66 %30.22 in10.0 miCalmPartly Cloudy
9:53 AM61.0 °F44.1 °F54 %30.24 in10.0 miCalmPartly Cloudy
10:53 AM66.0 °F43.0 °F43 %30.22 in10.0 miCalmPartly Cloudy
11:53 AM70.0 °F42.1 °F36 %30.19 in10.0 miCalmPartly Cloudy
12:53 PM73.9 °F36.0 °F25 %30.15 in10.0 miVariable3.5 mphScattered Clouds
1:53 PM75.0 °F33.1 °F22 %30.12 in10.0 miWNW (300°)6.9 mphScattered Clouds
2:53 PM75.9 °F34.0 °F22 %30.10 in10.0 miWest (280°)3.5 mphScattered Clouds
3:53 PM75.0 °F36.0 °F24 %30.10 in10.0 miWNW (300°)5.8 mphPartly Cloudy
4:53 PM68.0 °F41.0 °F37 %30.11 in10.0 miWest (280°)6.9 mphPartly Cloudy
5:53 PM62.1 °F39.9 °F44 %30.12 in10.0 miWNW (300°)5.8 mphPartly Cloudy
6:53 PM57.0 °F43.0 °F59 %30.14 in9.0 miCalmClear
7:53 PM54.0 °F42.1 °F64 %30.14 in10.0 miSW (230°)5.8 mphClear
8:53 PM53.1 °F41.0 °F64 %30.15 in9.0 miCalmClear
9:53 PM53.1 °F42.1 °F66 %30.14 in9.0 miCalmClear
10:53 PM48.9 °F42.1 °F77 %30.14 in8.0 miCalmClear
11:53 PM52.0 °F41.0 °F66 %30.14 in8.0 miNE (50°)3.5 mphClear
Hourly data recorded from KCNO, located miles away from San Dimas, California







STORIES FROM OUR PARTNERS